TimeEST,TemperatureF,Dew PointF,Humidity,Sea Level PressureIn,VisibilityMPH,Wind Direction,Wind SpeedMPH,Gust SpeedMPH,PrecipitationIn,Events,Conditions,WindDirDegrees,DateUTC
12:53 AM,33.1,30.9,92,29.62,4.0,ENE,17.3,-,0.00,Snow,Light Snow,70,2013-02-28 05:53:00
1:11 AM,33.8,30.2,87,29.59,2.5,ENE,19.6,24.2,0.00,Snow,Light Snow,60,2013-02-28 06:11:00
1:20 AM,33.8,30.2,87,29.59,3.0,ENE,17.3,-,0.00,Snow,Light Snow,60,2013-02-28 06:20:00
1:53 AM,33.1,30.9,92,29.59,4.0,ENE,15.0,-,0.00,Snow,Light Snow,60,2013-02-28 06:53:00
2:53 AM,33.1,30.9,92,29.57,5.0,ENE,16.1,-,0.00,Snow,Light Snow,60,2013-02-28 07:53:00
3:53 AM,32.0,30.9,96,29.56,8.0,ENE,15.0,-,0.00,,Overcast,60,2013-02-28 08:53:00
4:53 AM,32.0,30.0,92,29.56,3.0,ENE,12.7,-,0.00,Snow,Light Snow,60,2013-02-28 09:53:00
5:02 AM,32.0,30.2,93,29.54,2.5,ENE,11.5,-,0.00,Snow,Light Snow,60,2013-02-28 10:02:00
5:53 AM,32.0,30.0,92,29.56,3.0,ENE,12.7,-,0.00,Snow,Light Snow,60,2013-02-28 10:53:00
6:53 AM,32.0,30.2,93,29.55,2.5,ENE,8.1,-,N/A,Snow,Light Snow,70,2013-02-28 11:53:00
6:58 AM,32.0,30.2,93,29.55,1.2,ENE,8.1,-,0.00,Snow,Light Snow,70,2013-02-28 11:58:00
7:08 AM,32.0,30.2,93,29.55,2.0,ENE,6.9,-,0.00,Snow,Light Snow,70,2013-02-28 12:08:00
7:34 AM,32.0,30.2,93,29.56,1.2,ENE,5.8,-,0.01,Snow,Light Snow,70,2013-02-28 12:34:00
7:50 AM,32.0,32.0,100,29.56,0.8,Calm,Calm,-,0.01,Snow,Light Snow,0,2013-02-28 12:50:00
7:53 AM,32.0,32.0,100,29.57,0.8,East,3.5,-,0.01,Snow,Light Snow,80,2013-02-28 12:53:00
8:03 AM,32.0,30.2,93,29.56,1.0,East,5.8,-,0.00,Snow,Light Snow,80,2013-02-28 13:03:00
8:12 AM,32.0,30.2,93,29.56,0.8,NE,3.5,-,0.00,Snow,Light Snow,40,2013-02-28 13:12:00
8:25 AM,32.0,30.2,93,29.57,1.0,NE,5.8,-,0.00,Snow,Light Snow,50,2013-02-28 13:25:00
8:42 AM,33.8,32.0,93,29.57,1.5,ENE,3.5,-,0.00,Snow,Light Snow,70,2013-02-28 13:42:00
8:53 AM,33.8,32.0,93,29.57,1.8,NE,3.5,-,N/A,Snow,Light Snow,50,2013-02-28 13:53:00
9:06 AM,33.8,30.2,87,29.57,1.2,NE,3.5,-,0.01,Snow,Light Snow,50,2013-02-28 14:06:00
9:25 AM,33.8,33.8,100,29.57,2.0,Calm,Calm,-,0.01,Snow,Light Snow,0,2013-02-28 14:25:00
9:35 AM,33.8,32.0,93,29.58,6.0,East,3.5,-,0.01,,Overcast,100,2013-02-28 14:35:00
9:53 AM,34.0,33.1,96,29.59,10.0,SE,3.5,-,0.01,,Overcast,130,2013-02-28 14:53:00
10:02 AM,35.6,33.8,93,29.58,10.0,Calm,Calm,-,N/A,,Overcast,0,2013-02-28 15:02:00
10:53 AM,35.1,32.0,89,29.59,10.0,SSW,8.1,-,N/A,,Overcast,210,2013-02-28 15:53:00
11:29 AM,35.6,30.2,81,29.58,10.0,SSW,6.9,-,N/A,,Overcast,210,2013-02-28 16:29:00
11:53 AM,36.0,30.9,82,29.60,10.0,SSW,5.8,-,N/A,,Overcast,210,2013-02-28 16:53:00
12:17 PM,35.6,32.0,87,29.58,10.0,SW,6.9,-,0.00,,Overcast,220,2013-02-28 17:17:00
12:24 PM,35.6,32.0,87,29.58,10.0,SW,4.6,-,0.00,,Overcast,220,2013-02-28 17:24:00
12:53 PM,36.0,32.0,86,29.60,10.0,West,5.8,-,0.00,,Overcast,270,2013-02-28 17:53:00
1:10 PM,35.6,33.8,93,29.58,10.0,Calm,Calm,-,N/A,,Overcast,0,2013-02-28 18:10:00
1:53 PM,37.0,32.0,82,29.60,10.0,Calm,Calm,-,0.00,,Overcast,0,2013-02-28 18:53:00
2:29 PM,35.6,33.8,93,29.59,10.0,West,3.5,-,N/A,,Overcast,260,2013-02-28 19:29:00
2:53 PM,36.0,33.1,89,29.61,10.0,West,3.5,-,N/A,,Overcast,280,2013-02-28 19:53:00
3:53 PM,37.0,32.0,82,29.62,10.0,Calm,Calm,-,N/A,,Overcast,0,2013-02-28 20:53:00
4:41 PM,35.6,33.8,93,29.61,10.0,NE,4.6,-,N/A,,Overcast,50,2013-02-28 21:41:00
4:53 PM,35.1,32.0,89,29.64,10.0,NNE,4.6,-,N/A,,Overcast,20,2013-02-28 21:53:00
5:53 PM,35.1,32.0,89,29.66,9.0,NE,5.8,-,N/A,,Overcast,50,2013-02-28 22:53:00
6:12 PM,35.6,32.0,87,29.64,8.0,ENE,5.8,-,N/A,,Overcast,60,2013-02-28 23:12:00
6:37 PM,35.6,32.0,87,29.65,8.0,ENE,4.6,-,N/A,,Overcast,60,2013-02-28 23:37:00
6:53 PM,35.1,32.0,89,29.67,7.0,ENE,4.6,-,N/A,,Overcast,60,2013-02-28 23:53:00
7:53 PM,34.0,32.0,92,29.68,5.0,NE,5.8,-,N/A,,Overcast,50,2013-03-01 00:53:00
8:53 PM,34.0,32.0,92,29.68,5.0,Calm,Calm,-,N/A,,Overcast,0,2013-03-01 01:53:00
9:53 PM,33.1,30.9,92,29.69,7.0,NE,5.8,-,N/A,,Overcast,50,2013-03-01 02:53:00
10:53 PM,33.1,30.9,92,29.69,5.0,ENE,4.6,-,N/A,,Overcast,60,2013-03-01 03:53:00
11:14 PM,33.8,30.2,87,29.68,4.0,NE,5.8,-,N/A,,Overcast,50,2013-03-01 04:14:00
11:53 PM,33.1,30.9,92,29.70,5.0,NE,5.8,-,N/A,,Overcast,40,2013-03-01 04:53:00